RUK879F EGHH-EGPH

Flight info

Callsign RUK879F
Flight time 1h 7m
Altitude 32000
Route SAM Q41 SILVA UM605 DTY UY53 SAPCO UN57 POL UN601 RIBEL DCT INPIP
Aircraft B738/M-SDE1E2E3FGIJ1LRWY/SB1

Departure

Time 2026-04-21 20:05
Airport Bournemouth Airport (EGHH)

Arrival

Time 2026-04-21 21:12
Airport Edinburgh Airport (EGPH)
Time Latitude Longitude Altitude Speed Heading
2026-04-21 19:32 50.77925 -1.83392 45 ft 0 kts 87°
2026-04-21 19:56 50.77925 -1.83401 45 ft 3 kts 86°
2026-04-21 19:56 50.77923 -1.83436 45 ft 3 kts 88°
2026-04-21 19:57 50.77924 -1.83471 45 ft 3 kts 106°
2026-04-21 19:57 50.77931 -1.83493 45 ft 3 kts 168°
2026-04-21 19:57 50.77938 -1.83495 45 ft 0 kts 172°
2026-04-21 19:59 50.77937 -1.83495 45 ft 1 kts 172°
2026-04-21 19:59 50.77908 -1.83489 45 ft 8 kts 172°
2026-04-21 19:59 50.77827 -1.83473 45 ft 16 kts 176°
2026-04-21 20:00 50.77717 -1.83473 45 ft 14 kts 189°
2026-04-21 20:00 50.77622 -1.83490 42 ft 12 kts 198°
2026-04-21 20:00 50.77578 -1.83594 45 ft 13 kts 265°
2026-04-21 20:00 50.77577 -1.83738 44 ft 14 kts 273°
2026-04-21 20:01 50.77594 -1.83916 44 ft 20 kts 282°
2026-04-21 20:01 50.77633 -1.84169 43 ft 28 kts 286°
2026-04-21 20:01 50.77692 -1.84460 42 ft 27 kts 283°
2026-04-21 20:01 50.77721 -1.84690 43 ft 15 kts 281°
2026-04-21 20:02 50.77759 -1.84853 42 ft 16 kts 298°
2026-04-21 20:02 50.77812 -1.85004 42 ft 15 kts 299°
2026-04-21 20:02 50.77856 -1.85153 40 ft 15 kts 275°
2026-04-21 20:02 50.77831 -1.85319 42 ft 18 kts 256°
2026-04-21 20:03 50.77795 -1.85539 39 ft 23 kts 256°
2026-04-21 20:03 50.77746 -1.85692 42 ft 12 kts 205°
2026-04-21 20:03 50.77743 -1.85778 42 ft 11 kts 347°
2026-04-21 20:03 50.77756 -1.85760 42 ft 0 kts 74°
2026-04-21 20:04 50.77786 -1.85594 39 ft 54 kts 75°
2026-04-21 20:04 50.77957 -1.84565 101 ft 131 kts 76°
2026-04-21 20:05 50.78198 -1.83077 1029 ft 135 kts 76°
2026-04-21 20:05 50.78424 -1.81684 2159 ft 141 kts 77°
2026-04-21 20:05 50.78717 -1.79992 2791 ft 175 kts 76°
2026-04-21 20:05 50.79089 -1.78012 3190 ft 201 kts 76°
2026-04-21 20:06 50.79511 -1.75789 3691 ft 224 kts 75°
2026-04-21 20:06 50.79973 -1.73353 4506 ft 238 kts 75°
2026-04-21 20:06 50.80459 -1.70798 5699 ft 242 kts 76°
2026-04-21 20:06 50.80952 -1.68227 6876 ft 247 kts 75°
2026-04-21 20:07 50.81753 -1.65772 7921 ft 258 kts 56°
2026-04-21 20:07 50.82877 -1.63519 9022 ft 263 kts 54°
2026-04-21 20:07 50.83997 -1.61201 10130 ft 269 kts 55°
2026-04-21 20:07 50.85126 -1.58759 10881 ft 286 kts 56°
2026-04-21 20:08 50.86338 -1.56048 11260 ft 313 kts 56°
2026-04-21 20:08 50.87602 -1.53156 12066 ft 324 kts 57°
2026-04-21 20:08 50.88884 -1.50180 13109 ft 328 kts 57°
2026-04-21 20:08 50.90165 -1.47179 14166 ft 334 kts 57°
2026-04-21 20:09 50.91486 -1.44069 15056 ft 342 kts 56°
2026-04-21 20:09 50.92821 -1.40916 16048 ft 348 kts 54°
2026-04-21 20:09 50.94207 -1.37719 16949 ft 356 kts 50°
2026-04-21 20:09 50.96017 -1.35035 17825 ft 360 kts 31°
2026-04-21 20:10 50.98256 -1.33234 18741 ft 362 kts 16°
2026-04-21 20:10 51.00683 -1.32143 19625 ft 364 kts 11°
2026-04-21 20:10 51.03144 -1.31170 20575 ft 365 kts 10°
2026-04-21 20:10 51.05623 -1.30199 21515 ft 368 kts 10°
2026-04-21 20:11 51.08112 -1.29203 22402 ft 371 kts 10°
2026-04-21 20:11 51.10625 -1.28173 23265 ft 375 kts
2026-04-21 20:11 51.13156 -1.27117 24067 ft 378 kts
2026-04-21 20:11 51.15719 -1.26039 24737 ft 382 kts
2026-04-21 20:12 51.18303 -1.24949 25374 ft 387 kts
2026-04-21 20:12 51.20918 -1.23845 26044 ft 390 kts
2026-04-21 20:12 51.22656 -1.23109 26587 ft 389 kts
2026-04-21 20:12 51.26131 -1.21634 27775 ft 385 kts
2026-04-21 20:13 51.28723 -1.20534 28605 ft 385 kts
2026-04-21 20:13 51.31310 -1.19438 29386 ft 385 kts
2026-04-21 20:13 51.33893 -1.18342 30229 ft 384 kts
2026-04-21 20:13 51.36463 -1.17248 31025 ft 380 kts
2026-04-21 20:14 51.39019 -1.16159 31741 ft 379 kts
2026-04-21 20:14 51.41571 -1.15073 32268 ft 382 kts
2026-04-21 20:14 51.44133 -1.13982 32296 ft 381 kts
2026-04-21 20:15 51.49256 -1.11791 32320 ft 380 kts
2026-04-21 20:15 51.54372 -1.09599 32327 ft 382 kts
2026-04-21 20:16 51.59506 -1.07395 32333 ft 382 kts
2026-04-21 20:16 51.64701 -1.05567 32322 ft 376 kts
2026-04-21 20:17 51.69868 -1.04318 32322 ft 375 kts
2026-04-21 20:17 51.75014 -1.03049 32318 ft 374 kts
2026-04-21 20:18 51.79273 -1.01958 32316 ft 373 kts
2026-04-21 20:18 51.85262 -1.00921 32326 ft 365 kts 352°
2026-04-21 20:19 51.90204 -1.02227 32326 ft 359 kts 343°
2026-04-21 20:19 51.95087 -1.03881 32321 ft 359 kts 343°
2026-04-21 20:20 51.99976 -1.05480 32328 ft 359 kts 344°
2026-04-21 20:20 52.04885 -1.07079 32376 ft 359 kts 344°
2026-04-21 20:21 52.09791 -1.08682 32374 ft 360 kts 344°
2026-04-21 20:21 52.14694 -1.10287 32386 ft 359 kts 344°
2026-04-21 20:22 52.19502 -1.12282 32390 ft 354 kts 334°
2026-04-21 20:22 52.26310 -1.16899 32396 ft 353 kts 334°
2026-04-21 20:23 52.30113 -1.19484 32393 ft 353 kts 334°
2026-04-21 20:23 52.34651 -1.22553 32387 ft 352 kts 334°
2026-04-21 20:24 52.39183 -1.25616 32382 ft 351 kts 334°
2026-04-21 20:24 52.43694 -1.28670 32289 ft 351 kts 334°
2026-04-21 20:25 52.48200 -1.31728 32271 ft 350 kts 334°
2026-04-21 20:25 52.52709 -1.34794 32263 ft 351 kts 334°
2026-04-21 20:26 52.57257 -1.37735 32244 ft 352 kts 336°
2026-04-21 20:26 52.61872 -1.40478 32239 ft 353 kts 336°
2026-04-21 20:27 52.66485 -1.43228 32239 ft 353 kts 336°
2026-04-21 20:27 52.71093 -1.46007 32242 ft 352 kts 336°
2026-04-21 20:28 52.75690 -1.48796 32422 ft 352 kts 336°
2026-04-21 20:28 52.80304 -1.51604 32385 ft 353 kts 336°
2026-04-21 20:29 52.84912 -1.54416 32399 ft 353 kts 336°
2026-04-21 20:29 52.89527 -1.57240 32398 ft 354 kts 336°
2026-04-21 20:30 52.94164 -1.60083 32395 ft 354 kts 336°
2026-04-21 20:30 52.98786 -1.62923 32394 ft 354 kts 336°
2026-04-21 20:31 53.03406 -1.65768 32402 ft 355 kts 336°
2026-04-21 20:31 53.08037 -1.68626 32397 ft 355 kts 336°
2026-04-21 20:32 53.12670 -1.71492 32393 ft 355 kts 336°
2026-04-21 20:32 53.17318 -1.74375 32401 ft 355 kts 336°
2026-04-21 20:33 53.21927 -1.77241 32401 ft 355 kts 336°
2026-04-21 20:33 53.26552 -1.80123 32421 ft 355 kts 336°
2026-04-21 20:34 53.31183 -1.83016 32418 ft 356 kts 336°
2026-04-21 20:34 53.35830 -1.85926 32403 ft 357 kts 336°
2026-04-21 20:35 53.40478 -1.88843 32407 ft 356 kts 336°
2026-04-21 20:35 53.45121 -1.91764 32414 ft 357 kts 336°
2026-04-21 20:36 53.49799 -1.94713 32417 ft 357 kts 336°
2026-04-21 20:36 53.54448 -1.97651 32425 ft 357 kts 336°
2026-04-21 20:37 53.59099 -2.00598 32417 ft 357 kts 336°
2026-04-21 20:37 53.63738 -2.03544 32417 ft 356 kts 336°
2026-04-21 20:38 53.68364 -2.06488 32421 ft 356 kts 336°
2026-04-21 20:38 53.72992 -2.09440 32417 ft 355 kts 336°
2026-04-21 20:39 53.77600 -2.12485 32419 ft 355 kts 334°
2026-04-21 20:39 53.82186 -2.15639 32425 ft 356 kts 334°
2026-04-21 20:40 53.86786 -2.18788 32423 ft 357 kts 334°
2026-04-21 20:40 53.91403 -2.21948 32424 ft 357 kts 334°
2026-04-21 20:41 53.96010 -2.25109 32428 ft 358 kts 334°
2026-04-21 20:41 54.00629 -2.28286 32433 ft 358 kts 335°
2026-04-21 20:42 54.05274 -2.31488 32438 ft 359 kts 335°
2026-04-21 20:42 54.09916 -2.34696 32436 ft 359 kts 335°
2026-04-21 20:43 54.14550 -2.37907 32441 ft 360 kts 335°
2026-04-21 20:43 54.19194 -2.41132 32442 ft 360 kts 335°
2026-04-21 20:44 54.23822 -2.44354 32446 ft 361 kts 335°
2026-04-21 20:44 54.28524 -2.47637 32457 ft 366 kts 335°
2026-04-21 20:45 54.33265 -2.50955 32458 ft 370 kts 335°
2026-04-21 20:45 54.38033 -2.54298 32455 ft 371 kts 335°
2026-04-21 20:46 54.42810 -2.57656 32459 ft 371 kts 335°
2026-04-21 20:46 54.47580 -2.61018 32459 ft 369 kts 335°
2026-04-21 20:47 54.49960 -2.62700 32356 ft 371 kts 336°
2026-04-21 20:47 54.52336 -2.64380 32111 ft 365 kts 336°
2026-04-21 20:47 54.54663 -2.66026 31766 ft 359 kts 335°
2026-04-21 20:47 54.56990 -2.67674 31444 ft 357 kts 335°
2026-04-21 20:48 54.59295 -2.69312 31086 ft 358 kts 334°
2026-04-21 20:48 54.61573 -2.70929 30774 ft 351 kts 334°
2026-04-21 20:48 54.63817 -2.72524 30413 ft 346 kts 334°
2026-04-21 20:48 54.66020 -2.74093 30052 ft 339 kts 334°
2026-04-21 20:49 54.68178 -2.75633 29688 ft 333 kts 334°
2026-04-21 20:49 54.70304 -2.77151 29348 ft 329 kts 334°
2026-04-21 20:49 54.72405 -2.78655 29008 ft 325 kts 335°
2026-04-21 20:49 54.74504 -2.80160 28616 ft 330 kts 335°
2026-04-21 20:50 54.76677 -2.81721 28256 ft 348 kts 336°
2026-04-21 20:50 54.78943 -2.83349 27858 ft 353 kts 336°
2026-04-21 20:50 54.81198 -2.84966 27473 ft 348 kts 336°
2026-04-21 20:50 54.83424 -2.86564 27104 ft 344 kts 336°
2026-04-21 20:51 54.85617 -2.88142 26750 ft 340 kts 336°
2026-04-21 20:51 54.87789 -2.89708 26388 ft 338 kts 336°
2026-04-21 20:51 54.89962 -2.91277 25909 ft 340 kts 337°
2026-04-21 20:51 54.92161 -2.92866 25459 ft 344 kts 337°
2026-04-21 20:52 54.94390 -2.94479 24988 ft 350 kts 337°
2026-04-21 20:52 54.96647 -2.96114 24507 ft 353 kts 338°
2026-04-21 20:52 54.98918 -2.97761 24006 ft 355 kts 338°
2026-04-21 20:52 55.01207 -2.99423 23434 ft 357 kts 338°
2026-04-21 20:53 55.03509 -3.01095 22918 ft 358 kts 338°
2026-04-21 20:53 55.05803 -3.02765 22411 ft 357 kts 338°
2026-04-21 20:53 55.08088 -3.04430 21918 ft 355 kts 338°
2026-04-21 20:53 55.10365 -3.06091 21414 ft 354 kts 338°
2026-04-21 20:54 55.12637 -3.07749 20926 ft 353 kts 338°
2026-04-21 20:54 55.14895 -3.09401 20444 ft 352 kts 338°
2026-04-21 20:54 55.17152 -3.11055 19943 ft 351 kts 338°
2026-04-21 20:54 55.18680 -3.12176 19621 ft 351 kts 338°
2026-04-21 20:55 55.20900 -3.13805 19139 ft 350 kts 338°
2026-04-21 20:55 55.23169 -3.15472 18617 ft 350 kts 339°
2026-04-21 20:55 55.25413 -3.17123 18071 ft 349 kts 339°
2026-04-21 20:55 55.27647 -3.18768 17581 ft 347 kts 339°
2026-04-21 20:56 55.29908 -3.20162 17060 ft 343 kts 352°
2026-04-21 20:56 55.32253 -3.20220 16636 ft 334 kts
2026-04-21 20:56 55.34560 -3.19871 16152 ft 332 kts
2026-04-21 20:56 55.36854 -3.19470 15682 ft 330 kts
2026-04-21 20:57 55.39126 -3.19071 15221 ft 324 kts
2026-04-21 20:57 55.41352 -3.19169 14833 ft 318 kts 349°
2026-04-21 20:57 55.43317 -3.20760 14599 ft 309 kts 326°
2026-04-21 20:57 55.44901 -3.23289 14067 ft 309 kts 316°
2026-04-21 20:58 55.46394 -3.26069 13563 ft 312 kts 315°
2026-04-21 20:58 55.47863 -3.28870 13197 ft 310 kts 314°
2026-04-21 20:58 55.49311 -3.31645 12875 ft 305 kts 314°
2026-04-21 20:58 55.50737 -3.34379 12532 ft 302 kts 314°
2026-04-21 20:59 55.52155 -3.37114 12021 ft 301 kts 314°
2026-04-21 20:59 55.53577 -3.39872 11537 ft 304 kts 314°
2026-04-21 20:59 55.54995 -3.42637 11206 ft 302 kts 314°
2026-04-21 20:59 55.56384 -3.45357 10835 ft 296 kts 314°
2026-04-21 21:00 55.57764 -3.48069 10317 ft 297 kts 314°
2026-04-21 21:00 55.59141 -3.50781 9814 ft 296 kts 314°
2026-04-21 21:00 55.60522 -3.53513 9335 ft 292 kts 314°
2026-04-21 21:00 55.61851 -3.56151 8857 ft 290 kts 314°
2026-04-21 21:01 55.63185 -3.58807 8388 ft 288 kts 314°
2026-04-21 21:01 55.64501 -3.61437 7913 ft 286 kts 314°
2026-04-21 21:01 55.65850 -3.64057 7453 ft 282 kts 317°
2026-04-21 21:01 55.67239 -3.66492 6999 ft 280 kts 319°
2026-04-21 21:02 55.68632 -3.68893 6529 ft 278 kts 319°
2026-04-21 21:02 55.69979 -3.71217 6404 ft 258 kts 319°
2026-04-21 21:02 55.71215 -3.73368 6195 ft 240 kts 319°
2026-04-21 21:02 55.72371 -3.75324 6039 ft 219 kts 327°
2026-04-21 21:03 55.73655 -3.76547 5755 ft 202 kts 341°
2026-04-21 21:03 55.74903 -3.77628 5371 ft 199 kts 339°
2026-04-21 21:03 55.76135 -3.78728 4952 ft 198 kts 339°
2026-04-21 21:03 55.77377 -3.79681 4533 ft 191 kts 357°
2026-04-21 21:04 55.78609 -3.79364 4225 ft 174 kts 30°
2026-04-21 21:04 55.79716 -3.78507 4049 ft 176 kts 29°
2026-04-21 21:04 55.80848 -3.77631 4001 ft 176 kts 34°
2026-04-21 21:04 55.81669 -3.76177 3996 ft 164 kts 59°
2026-04-21 21:05 55.82331 -3.74526 3985 ft 160 kts 58°
2026-04-21 21:05 55.82930 -3.72954 3979 ft 149 kts 60°
2026-04-21 21:05 55.83469 -3.71438 3984 ft 142 kts 61°
2026-04-21 21:05 55.83983 -3.69946 3990 ft 143 kts 62°
2026-04-21 21:06 55.84498 -3.68429 4012 ft 144 kts 62°
2026-04-21 21:06 55.85023 -3.66871 3866 ft 148 kts 62°
2026-04-21 21:06 55.85551 -3.65302 3673 ft 147 kts 62°
2026-04-21 21:06 55.86069 -3.63759 3469 ft 144 kts 62°
2026-04-21 21:07 55.86577 -3.62245 3271 ft 141 kts 62°
2026-04-21 21:07 55.87075 -3.60762 3078 ft 139 kts 62°
2026-04-21 21:07 55.87576 -3.59270 2889 ft 138 kts 62°
2026-04-21 21:07 55.88064 -3.57819 2695 ft 138 kts 62°
2026-04-21 21:08 55.88556 -3.56353 2506 ft 138 kts 62°
2026-04-21 21:08 55.89046 -3.54896 2310 ft 135 kts 61°
2026-04-21 21:08 55.89516 -3.53500 2152 ft 125 kts 61°
2026-04-21 21:08 55.89965 -3.52168 1957 ft 122 kts 61°
2026-04-21 21:09 55.90394 -3.50892 1784 ft 122 kts 61°
2026-04-21 21:09 55.90833 -3.49590 1611 ft 123 kts 60°
2026-04-21 21:09 55.91267 -3.48269 1472 ft 122 kts 61°
2026-04-21 21:09 55.91708 -3.46986 1300 ft 121 kts 60°
2026-04-21 21:10 55.92146 -3.45690 1098 ft 122 kts 60°
2026-04-21 21:10 55.92604 -3.44324 906 ft 131 kts 58°
2026-04-21 21:10 55.93073 -3.42971 711 ft 123 kts 60°
2026-04-21 21:10 55.93511 -3.41655 533 ft 123 kts 59°
2026-04-21 21:11 55.93949 -3.40357 394 ft 122 kts 58°
2026-04-21 21:11 55.94381 -3.39083 208 ft 118 kts 58°
2026-04-21 21:11 55.94786 -3.37892 113 ft 93 kts 60°
2026-04-21 21:11 55.95021 -3.37186 110 ft 52 kts 59°
2026-04-21 21:12 55.95178 -3.36725 112 ft 33 kts 59°
2026-04-21 21:12 55.95261 -3.36476 111 ft 9 kts 71°
2026-04-21 21:12 55.95226 -3.36389 111 ft 9 kts 142°
2026-04-21 21:12 55.95186 -3.36343 114 ft 0 kts 149°
2026-04-21 21:13 55.95185 -3.36342 111 ft 1 kts 148°
2026-04-21 21:13 55.95158 -3.36316 114 ft 8 kts 159°
2026-04-21 21:14 55.95106 -3.36369 114 ft 11 kts 239°
2026-04-21 21:14 55.95044 -3.36385 115 ft 10 kts 173°